<?xml version="1.0"?>
<gpx xmlns="http://www.topografix.com/GPX/1/1" xmlns:xsi="http://www.w3.org/2001/XMLSchema-instance" version="1.1" creator="GPX RubyGem 1.0.0 -- http://dougfales.github.io/gpx/" xsi:schemaLocation="http://www.topografix.com/GPX/1/1 http://www.topografix.com/GPX/1/1/gpx.xsd">
  <metadata>
    <name/>
    <time>2026-05-07T15:51:20+00:00</time>
    <bound minlat="90.0" minlon="180.0" maxlat="-90.0" maxlon="-180.0"/>
  </metadata>
  <trk>
    <name/>
    <trkseg>
      <trkpt lat="46.301381" lon="12.779372">
        <time>1970-01-01T00:00:00+00:00</time>
        <ele>347.0</ele>
      </trkpt>
      <trkpt lat="46.301371" lon="12.779324">
        <time>1970-01-01T00:00:00+00:00</time>
        <ele>347.0</ele>
      </trkpt>
      <trkpt lat="46.301283" lon="12.779351">
        <time>1970-01-01T00:00:00+00:00</time>
        <ele>347.0</ele>
      </trkpt>
      <trkpt lat="46.301085" lon="12.778433">
        <time>1970-01-01T00:00:00+00:00</time>
        <ele>347.0</ele>
      </trkpt>
      <trkpt lat="46.301022" lon="12.777962">
        <time>1970-01-01T00:00:00+00:00</time>
        <ele>348.0</ele>
      </trkpt>
      <trkpt lat="46.300974" lon="12.777334">
        <time>1970-01-01T00:00:00+00:00</time>
        <ele>348.0</ele>
      </trkpt>
      <trkpt lat="46.300927" lon="12.776797">
        <time>1970-01-01T00:00:00+00:00</time>
        <ele>348.0</ele>
      </trkpt>
      <trkpt lat="46.300962" lon="12.776623">
        <time>1970-01-01T00:00:00+00:00</time>
        <ele>350.0</ele>
      </trkpt>
      <trkpt lat="46.300963" lon="12.775951">
        <time>1970-01-01T00:00:00+00:00</time>
        <ele>351.0</ele>
      </trkpt>
      <trkpt lat="46.301166" lon="12.775802">
        <time>1970-01-01T00:00:00+00:00</time>
        <ele>358.0</ele>
      </trkpt>
      <trkpt lat="46.30134" lon="12.775735">
        <time>1970-01-01T00:00:00+00:00</time>
        <ele>362.0</ele>
      </trkpt>
      <trkpt lat="46.301633" lon="12.775786">
        <time>1970-01-01T00:00:00+00:00</time>
        <ele>375.0</ele>
      </trkpt>
      <trkpt lat="46.301787" lon="12.775846">
        <time>1970-01-01T00:00:00+00:00</time>
        <ele>381.0</ele>
      </trkpt>
      <trkpt lat="46.301882" lon="12.776133">
        <time>1970-01-01T00:00:00+00:00</time>
        <ele>389.0</ele>
      </trkpt>
      <trkpt lat="46.301924" lon="12.776177">
        <time>1970-01-01T00:00:00+00:00</time>
        <ele>391.0</ele>
      </trkpt>
      <trkpt lat="46.302094" lon="12.776661">
        <time>1970-01-01T00:00:00+00:00</time>
        <ele>395.0</ele>
      </trkpt>
      <trkpt lat="46.302128" lon="12.776833">
        <time>1970-01-01T00:00:00+00:00</time>
        <ele>396.0</ele>
      </trkpt>
      <trkpt lat="46.302278" lon="12.776895">
        <time>1970-01-01T00:00:00+00:00</time>
        <ele>400.0</ele>
      </trkpt>
      <trkpt lat="46.302357" lon="12.777339">
        <time>1970-01-01T00:00:00+00:00</time>
        <ele>401.0</ele>
      </trkpt>
      <trkpt lat="46.302415" lon="12.777553">
        <time>1970-01-01T00:00:00+00:00</time>
        <ele>402.0</ele>
      </trkpt>
      <trkpt lat="46.302478" lon="12.777661">
        <time>1970-01-01T00:00:00+00:00</time>
        <ele>403.0</ele>
      </trkpt>
      <trkpt lat="46.302538" lon="12.777684">
        <time>1970-01-01T00:00:00+00:00</time>
        <ele>405.0</ele>
      </trkpt>
      <trkpt lat="46.302595" lon="12.777604">
        <time>1970-01-01T00:00:00+00:00</time>
        <ele>408.0</ele>
      </trkpt>
      <trkpt lat="46.302599" lon="12.777227">
        <time>1970-01-01T00:00:00+00:00</time>
        <ele>407.0</ele>
      </trkpt>
      <trkpt lat="46.302625" lon="12.777064">
        <time>1970-01-01T00:00:00+00:00</time>
        <ele>409.0</ele>
      </trkpt>
      <trkpt lat="46.302802" lon="12.776529">
        <time>1970-01-01T00:00:00+00:00</time>
        <ele>416.0</ele>
      </trkpt>
      <trkpt lat="46.303133" lon="12.776255">
        <time>1970-01-01T00:00:00+00:00</time>
        <ele>436.0</ele>
      </trkpt>
      <trkpt lat="46.303559" lon="12.77578">
        <time>1970-01-01T00:00:00+00:00</time>
        <ele>430.0</ele>
      </trkpt>
      <trkpt lat="46.303734" lon="12.775667">
        <time>1970-01-01T00:00:00+00:00</time>
        <ele>427.0</ele>
      </trkpt>
      <trkpt lat="46.303762" lon="12.77532">
        <time>1970-01-01T00:00:00+00:00</time>
        <ele>414.0</ele>
      </trkpt>
      <trkpt lat="46.303783" lon="12.775219">
        <time>1970-01-01T00:00:00+00:00</time>
        <ele>410.0</ele>
      </trkpt>
      <trkpt lat="46.303783" lon="12.775219">
        <time>1970-01-01T00:00:00+00:00</time>
        <ele>410.0</ele>
      </trkpt>
      <trkpt lat="46.303762" lon="12.77532">
        <time>1970-01-01T00:00:00+00:00</time>
        <ele>414.0</ele>
      </trkpt>
      <trkpt lat="46.303734" lon="12.775667">
        <time>1970-01-01T00:00:00+00:00</time>
        <ele>427.0</ele>
      </trkpt>
      <trkpt lat="46.303559" lon="12.77578">
        <time>1970-01-01T00:00:00+00:00</time>
        <ele>430.0</ele>
      </trkpt>
      <trkpt lat="46.303133" lon="12.776255">
        <time>1970-01-01T00:00:00+00:00</time>
        <ele>436.0</ele>
      </trkpt>
      <trkpt lat="46.302802" lon="12.776529">
        <time>1970-01-01T00:00:00+00:00</time>
        <ele>416.0</ele>
      </trkpt>
      <trkpt lat="46.302625" lon="12.777064">
        <time>1970-01-01T00:00:00+00:00</time>
        <ele>409.0</ele>
      </trkpt>
      <trkpt lat="46.302599" lon="12.777227">
        <time>1970-01-01T00:00:00+00:00</time>
        <ele>407.0</ele>
      </trkpt>
      <trkpt lat="46.302595" lon="12.777604">
        <time>1970-01-01T00:00:00+00:00</time>
        <ele>408.0</ele>
      </trkpt>
      <trkpt lat="46.302538" lon="12.777684">
        <time>1970-01-01T00:00:00+00:00</time>
        <ele>405.0</ele>
      </trkpt>
      <trkpt lat="46.302478" lon="12.777661">
        <time>1970-01-01T00:00:00+00:00</time>
        <ele>403.0</ele>
      </trkpt>
      <trkpt lat="46.302415" lon="12.777553">
        <time>1970-01-01T00:00:00+00:00</time>
        <ele>402.0</ele>
      </trkpt>
      <trkpt lat="46.302357" lon="12.777339">
        <time>1970-01-01T00:00:00+00:00</time>
        <ele>401.0</ele>
      </trkpt>
      <trkpt lat="46.302278" lon="12.776895">
        <time>1970-01-01T00:00:00+00:00</time>
        <ele>400.0</ele>
      </trkpt>
      <trkpt lat="46.302128" lon="12.776833">
        <time>1970-01-01T00:00:00+00:00</time>
        <ele>396.0</ele>
      </trkpt>
      <trkpt lat="46.302094" lon="12.776661">
        <time>1970-01-01T00:00:00+00:00</time>
        <ele>395.0</ele>
      </trkpt>
      <trkpt lat="46.301924" lon="12.776177">
        <time>1970-01-01T00:00:00+00:00</time>
        <ele>391.0</ele>
      </trkpt>
      <trkpt lat="46.301882" lon="12.776133">
        <time>1970-01-01T00:00:00+00:00</time>
        <ele>389.0</ele>
      </trkpt>
      <trkpt lat="46.301787" lon="12.775846">
        <time>1970-01-01T00:00:00+00:00</time>
        <ele>381.0</ele>
      </trkpt>
      <trkpt lat="46.301633" lon="12.775786">
        <time>1970-01-01T00:00:00+00:00</time>
        <ele>375.0</ele>
      </trkpt>
      <trkpt lat="46.30134" lon="12.775735">
        <time>1970-01-01T00:00:00+00:00</time>
        <ele>362.0</ele>
      </trkpt>
      <trkpt lat="46.301166" lon="12.775802">
        <time>1970-01-01T00:00:00+00:00</time>
        <ele>358.0</ele>
      </trkpt>
      <trkpt lat="46.300963" lon="12.775951">
        <time>1970-01-01T00:00:00+00:00</time>
        <ele>351.0</ele>
      </trkpt>
      <trkpt lat="46.300962" lon="12.776623">
        <time>1970-01-01T00:00:00+00:00</time>
        <ele>350.0</ele>
      </trkpt>
      <trkpt lat="46.300927" lon="12.776797">
        <time>1970-01-01T00:00:00+00:00</time>
        <ele>348.0</ele>
      </trkpt>
      <trkpt lat="46.300974" lon="12.777334">
        <time>1970-01-01T00:00:00+00:00</time>
        <ele>348.0</ele>
      </trkpt>
      <trkpt lat="46.301022" lon="12.777962">
        <time>1970-01-01T00:00:00+00:00</time>
        <ele>348.0</ele>
      </trkpt>
      <trkpt lat="46.301085" lon="12.778433">
        <time>1970-01-01T00:00:00+00:00</time>
        <ele>347.0</ele>
      </trkpt>
      <trkpt lat="46.301283" lon="12.779351">
        <time>1970-01-01T00:00:00+00:00</time>
        <ele>347.0</ele>
      </trkpt>
      <trkpt lat="46.301371" lon="12.779324">
        <time>1970-01-01T00:00:00+00:00</time>
        <ele>347.0</ele>
      </trkpt>
      <trkpt lat="46.301381" lon="12.779372">
        <time>1970-01-01T00:00:00+00:00</time>
        <ele>347.0</ele>
      </trkpt>
    </trkseg>
  </trk>
</gpx>
